Poughkeepsie, NY

7:14 PM EST on November 18, 2017 (GMT -0500)
Dutchess County

Weather History for KPOU - September, 2013

Change the Weather History Date:

Sunday, September 29, 2013

  Actual Average Record
Temperature  
Mean Temperature 61 °F 58 °F  
Max Temperature 76 °F 70 °F 84 °F (1959)
Min Temperature 45 °F 46 °F 27 °F (1957)
Degree Days  
Heating Degree Days 4 8  
Month to date heating degree days 134 116  
Since 1 July heating degree days 137 133  
Cooling Degree Days 0 1  
Month to date cooling degree days 64 65  
Year to date cooling degree days 821 669  
Growing Degree Days 9 (Base 50)    
Moisture  
Dew Point 49 °F    
Average Humidity 72    
Maximum Humidity 100    
Minimum Humidity 44    
Precipitation  
Precipitation 0.00 in 0.16 in 2.67 in (2011)
Month to date precipitation 2.32 4.13  
Year to date precipitation 32.54 34.91  
Sea Level Pressure  
Sea Level Pressure 30.18 in    
Wind  
Wind Speed 0 mph (SE)    
Max Wind Speed 10 mph    
Max Gust Speed 20 mph    
Visibility 6 miles    
Events Fog    
T = Trace of Precipitation, MM = Missing Value Source: NWS Daily Summary

Daily Weather History Graph

Daily Weather History Graph

Search for Another Location

Airport or City:

Trip Planner

Search our weather history database for the weather conditions in past years. The results will help you decide how hot, cold, wet, or windy it might be!

Date:

Astronomy

Sep. 29, 2013 Rise Set
Actual Time 6:50 AM EDT 6:40 PM EDT
Civil Twilight 6:22 AM EDT 7:07 PM EDT
Nautical Twilight 5:50 AM EDT 7:40 PM EDT
Astronomical Twilight 5:17 AM EDT 8:12 PM EDT
Moon 1:25 AM EDT (9/29) 3:38 PM EDT (9/29)
Length of Visible Light 12h 45m
Length of Day
11h 49m
Waning Crescent, 27% of the Moon is Illuminated
Sep 29
Waning Crescent
Oct 4
New
Oct 11
First Quarter
Oct 18
Full
Oct 26
Last Quarter

Hourly Weather History & Observations

Time (EDT) Temp. Dew Point Humidity Pressure Visibility Wind Dir Wind Speed Gust Speed Precip Events Conditions
12:53 AM 50.0 °F 48.0 °F 93% 30.23 in 10.0 mi Calm Calm - N/A   Mostly Cloudy
1:53 AM 50.0 °F 48.0 °F 93% 30.23 in 10.0 mi Calm Calm - N/A   Clear
2:41 AM 48.2 °F 46.4 °F 93% 30.23 in 2.0 mi Calm Calm - N/A   Clear
2:49 AM 48.2 °F 46.4 °F 93% 30.22 in 8.0 mi Calm Calm - N/A   Clear
2:53 AM 48.0 °F 46.9 °F 96% 30.22 in 8.0 mi Calm Calm - N/A   Clear
3:53 AM 46.0 °F 45.0 °F 96% 30.20 in 10.0 mi Calm Calm - N/A   Clear
4:15 AM 46.4 °F 44.6 °F 93% 30.21 in 10.0 mi Calm Calm - N/A   Scattered Clouds
4:53 AM 45.0 °F 44.1 °F 97% 30.19 in 10.0 mi Calm Calm - N/A   Mostly Cloudy
5:22 AM 46.4 °F 44.6 °F 93% 30.20 in 10.0 mi Calm Calm - N/A   Overcast
5:42 AM 46.4 °F 46.4 °F 100% 30.20 in 1.5 mi Calm Calm - N/A   Overcast
5:53 AM 48.0 °F 46.0 °F 93% 30.19 in 0.8 mi Calm Calm - N/A   Overcast
6:01 AM 48.2 °F 46.4 °F 93% 30.21 in 2.0 mi Calm Calm - N/A   Overcast
6:08 AM 48.2 °F 46.4 °F 93% 30.21 in 9.0 mi Calm Calm - N/A   Overcast
6:36 AM 48.2 °F 46.4 °F 93% 30.21 in 1.8 mi Calm Calm - N/A   Overcast
6:48 AM 48.2 °F 48.2 °F 100% 30.21 in 0.5 mi Calm Calm - N/A Fog Fog
6:53 AM 48.9 °F 48.0 °F 97% 30.20 in 0.2 mi Calm Calm - N/A Fog Fog
7:53 AM 50.0 °F 48.9 °F 96% 30.22 in 0.2 mi Calm Calm - N/A Fog Fog
8:53 AM 51.1 °F 51.1 °F 100% 30.22 in 0.2 mi Calm Calm - N/A Fog Fog
9:08 AM 51.8 °F 51.8 °F 100% 30.22 in 0.5 mi Calm Calm - N/A Fog Fog
9:18 AM 51.8 °F 51.8 °F 100% 30.22 in 1.8 mi Calm Calm - N/A   Overcast
9:24 AM 51.8 °F 51.8 °F 100% 30.22 in 3.0 mi Calm Calm - N/A   Overcast
9:36 AM 51.8 °F 51.8 °F 100% 30.22 in 1.0 mi Calm Calm - N/A   Overcast
9:53 AM 52.0 °F 51.1 °F 97% 30.22 in 1.0 mi Calm Calm - N/A   Overcast
10:00 AM 53.6 °F 51.8 °F 94% 30.23 in 2.5 mi Calm Calm - N/A   Overcast
10:24 AM 53.6 °F 53.6 °F 100% 30.22 in 4.0 mi Calm Calm - N/A   Overcast
10:35 AM 53.6 °F 51.8 °F 94% 30.22 in 10.0 mi Calm Calm - N/A   Overcast
10:53 AM 57.0 °F 54.0 °F 89% 30.21 in 10.0 mi Calm Calm - N/A   Scattered Clouds
11:53 AM 64.9 °F 54.0 °F 68% 30.18 in 10.0 mi Calm Calm - N/A   Clear
12:53 PM 70.0 °F 52.0 °F 53% 30.15 in 10.0 mi Calm Calm - N/A   Scattered Clouds
1:53 PM 72.0 °F 51.1 °F 48% 30.13 in 10.0 mi SSE 4.6 mph - N/A   Partly Cloudy
2:53 PM 73.0 °F 51.1 °F 46% 30.11 in 10.0 mi Calm Calm - N/A   Scattered Clouds
3:53 PM 73.9 °F 50.0 °F 43% 30.09 in 10.0 mi Calm Calm - N/A   Scattered Clouds
4:53 PM 72.0 °F 48.9 °F 44% 30.06 in 10.0 mi Calm Calm - N/A   Clear
5:53 PM 70.0 °F 50.0 °F 49% 30.06 in 10.0 mi Calm Calm - N/A   Clear
6:53 PM 60.1 °F 54.0 °F 80% 30.06 in 10.0 mi ESE 3.5 mph - N/A   Clear
7:53 PM 60.1 °F 53.1 °F 78% 30.08 in 10.0 mi Calm Calm - N/A   Mostly Cloudy
8:53 PM 57.0 °F 52.0 °F 83% 30.09 in 10.0 mi Calm Calm - N/A   Scattered Clouds
9:53 PM 53.1 °F 51.1 °F 93% 30.09 in 10.0 mi Calm Calm - N/A   Clear
10:53 PM 52.0 °F 51.1 °F 97% 30.09 in 10.0 mi Calm Calm - N/A   Clear
11:53 PM 50.0 °F 48.0 °F 93% 30.09 in 10.0 mi Calm Calm - N/A   Clear